This is the latest recevied weather packets stored in our database for station/object wb2ifs-13. If no packets are shown the sender has not sent any weather packets the latest 10 day(s).
| Time | Temp. | Humidity | Pressure | Rain* | Wind** | Luminosity | Snow |
|---|---|---|---|---|---|---|---|
| 1777576500 | 20.56° C | 45% | 1008.6 hPa | 0 mm | - | - | - |
| 1777575601 | 21.11° C | 47% | 1008.5 hPa | 0 mm | - | - | - |
| 1777574698 | 21.11° C | 42% | 1008.7 hPa | 0 mm | - | - | - |
| 1777573799 | 20.56° C | 47% | 1009 hPa | 0 mm | - | - | - |
| 1777572898 | 19.44° C | 47% | 1008.9 hPa | 0 mm | - | - | - |
| 1777572001 | 20.56° C | 46% | 1008.8 hPa | 0 mm | - | - | - |
| 1777571098 | 20.56° C | 47% | 1009 hPa | 0 mm | - | - | - |
| 1777570200 | 19.44° C | 46% | 1009.1 hPa | 0 mm | - | - | - |
| 1777569298 | 18.33° C | 52% | 1009.2 hPa | 0 mm | - | - | - |
| 1777568399 | 20° C | 48% | 1009.4 hPa | 0 mm | - | - | - |
| 1777567499 | 19.44° C | 51% | 1009.6 hPa | 0 mm | - | - | - |
| 1777566598 | 19.44° C | 50% | 1009.6 hPa | 0 mm | - | - | - |
| 1777565699 | 19.44° C | 54% | 1009.5 hPa | 0 mm | - | - | - |
| 1777564799 | 19.44° C | 56% | 1009.9 hPa | 0 mm | - | - | - |
| 1777563899 | 18.89° C | 56% | 1009.9 hPa | 0 mm | - | - | - |
| 1777562998 | 18.89° C | 58% | 1009.9 hPa | 0 mm | - | - | - |
| 1777562100 | 18.33° C | 56% | 1009.9 hPa | 0 mm | - | - | - |
| 1777561201 | 17.78° C | 57% | 1009.9 hPa | 0 mm | - | - | - |
| 1777560300 | 17.78° C | 61% | 1010 hPa | 0 mm | - | - | - |
| 1777559400 | 17.22° C | 62% | 1010.1 hPa | 0 mm | - | - | - |
| 1777558500 | 16.67° C | 64% | 1010.2 hPa | 0 mm | - | - | - |
| 1777557600 | 15.56° C | 70% | 1010.2 hPa | 0 mm | - | - | - |
| 1777556699 | 14.44° C | 84% | 1010.1 hPa | 0 mm | - | - | - |
| 1777555799 | 13.33° C | 87% | 1009.9 hPa | 0 mm | - | - | - |
| 1777554899 | 13.33° C | 90% | 1009.9 hPa | 0 mm | - | - | - |
* Rain latest hour (hover to see other rain measurements)
** Current wind speed in m/s (hover to see current wind gust speed)